[[{"header":{"parameterUnit":"m.s-1","parameterCategory":1,"la1":30.2991,"la2":30.254,"lo1":-89.0895,"lo2":-89.0444,"dy":0.0017,"dx":0.0017,"nx":28,"ny":28,"refTime":"2024-03-28T21:00:00:Z","depth":0,"parameterNumber":2,"parameterNumberName":"U-component_of_WINDS"},"data":[0,0,0,0,0,0,0,0,0,0,0,0,0,0,0,0,0,0,0,0,0,0,0,0,0,0,0,0,0,0,0,0,0,0,0,0,0,0,0,0,0,0,0,0,0,0,0,0,0,0,0,0,0,0,0,0,0,0,0.6534,0.6534,0,0.6536,0.6536,0.6536,0.6534,0.6534,0.6534,0.6534,0.6534,0.6535,0.6535,0,0,0,0,0,0,0,0,0,0,0,0,0,0.6527,0.6528,0.6534,0.6534,0.6534,0.6536,0.6536,0.6536,0.6534,0.6534,0.6534,0.6534,0.6534,0.6535,0.6535,0,0,0,0,0,0,0,0,0,0,0,0,0,0.653,0.6528,0.6534,0.6533,0.6533,0.6536,0.6536,0.6536,0.6534,0.6534,0.6534,0.6534,0.6534,0.6535,0.6535,0.6538,0,0,0.6535,0.6535,0,0,0,0,0,0,0,0,0.653,0.653,0.6533,0.6533,0.6533,0.6535,0.6534,0.6537,0.6534,0.6534,0.6534,0.6534,0.6535,0.6535,0.6535,0.6538,0.6538,0.6535,0.6535,0.6535,0.6535,0,0,0,0,0,0,0,0.653,0.653,0.6535,0.6533,0.6533,0.6533,0.6533,0.6534,0.6535,0.6534,0.6534,0.6534,0.6535,0.6535,0.6535,0.6538,0.6535,0.6535,0.6535,0.6535,0.6543,0.6543,0,0,0,0,0,0,0.653,0.653,0.6535,0.6535,0.6531,0.6533,0.6533,0.6534,0.6535,0.6535,0.6534,0.6534,0.6535,0.6535,0.6535,0.6539,0.6535,0.6535,0.6535,0.6543,0.6543,0.6543,0,0,0,0,0,0,0.653,0.653,0.6535,0.6532,0.6533,0.6533,0.6535,0.6535,0.6535,0.6535,0.6535,0.6535,0.6535,0.6535,0.6537,0.6539,0.6535,0.6535,0.6543,0.6543,0.6543,0.6546,0,0,0,0,0,0,0.6529,0.653,0.6531,0.6532,0.6533,0.6537,0.6535,0.6535,0.6536,0.6535,0.6536,0.6535,0.6535,0.6537,0.6537,0.6539,0.6536,0.6543,0.6543,0.6543,0.6546,0.6547,0.6547,0,0,0,0,0,0.6529,0.6532,0.6531,0.6532,0.6535,0.6537,0.6537,0.6537,0.6536,0.6537,0.6537,0.6535,0.6539,0.6537,0.6538,0.6539,0.6543,0.6543,0.6543,0.6546,0.6547,0.6547,0,0,0,0,0,0,0.653,0.6532,0.6531,0.6534,0.6536,0.6537,0.6538,0.6538,0.6539,0.6538,0.6537,0.6537,0.654,0.654,0.6538,0.6543,0.654,0.6541,0.6542,0.6543,0.6544,0.6543,0.6536,0,0,0,0,0,0.6531,0.6533,0.6534,0.6536,0.6537,0.6538,0.6539,0.6538,0.6539,0.654,0.654,0.654,0.6542,0.6542,0.6544,0.6546,0.6546,0.6548,0.6548,0.6549,0.6549,0.6551,0.6551,0.6544,0.6544,0.6544,0,0,0.6532,0.6533,0.6534,0.6537,0.6538,0.654,0.6538,0.654,0.6541,0.654,0.6542,0.6542,0.6543,0.6546,0.6547,0.6546,0.6551,0.6549,0.6549,0.6549,0.6551,0.6552,0.6552,0.6545,0.6545,0.6544,0,0,0.6535,0.6536,0.6538,0.654,0.6541,0.6542,0.6542,0.6544,0.6544,0.6547,0.6546,0.6547,0.6549,0.655,0.655,0.6555,0.6554,0.6555,0.6558,0.656,0.656,0.6561,0.6562,0.6563,0.6556,0.6556,0.6556,0,0.6536,0.6539,0.6539,0.6542,0.6543,0.6543,0.6545,0.6546,0.6548,0.6549,0.6548,0.6551,0.6551,0.6554,0.6556,0.6556,0.6557,0.6555,0.656,0.6561,0.6561,0.6563,0.6563,0.6556,0.6556,0.6556,0.6556,0,0.654,0.6543,0.6544,0.6547,0.6548,0.6551,0.6552,0.6553,0.6553,0.6553,0.6556,0.6557,0.6558,0.6559,0.6559,0.6562,0.6562,0.656,0.6558,0.6562,0.6563,0.6564,0.6556,0.6556,0.6556,0.6556,0,0,0.6543,0.6547,0.6547,0.6549,0.6551,0.6553,0.6555,0.6558,0.6559,0.656,0.6562,0.6565,0.6564,0.6565,0.6564,0.6566,0.657,0.6565,0.6565,0.6566,0.6574,0.6575,0.6575,0.6569,0.6569,0.657,0.6574,0,0.6546,0.6551,0.6552,0.6556,0.6559,0.6559,0.6561,0.6563,0.6563,0.6565,0.6566,0.6568,0.6566,0.6567,0.6569,0.6569,0.6571,0.6569,0.6571,0.6571,0.657,0.6576,0.6577,0.6581,0.6575,0.6575,0.6575,0,0.655,0.6553,0.6557,0.656,0.6561,0.6563,0.6566,0.6568,0.657,0.657,0.6571,0.6571,0.6574,0.6572,0.6575,0.6574,0.6575,0.6575,0.6575,0.6575,0.6573,0.6576,0.6582,0.6583,0.6576,0.6576,0.6575,0,0.6552,0.6556,0.656,0.6561,0.6564,0.6566,0.6567,0.6569,0.6571,0.6573,0.6574,0.6576,0.6577,0.6578,0.6579,0.6577,0.6582,0.658,0.6583,0.6583,0.6583,0.6583,0.6589,0.6584,0.6584,0.6584,0.6584,0,0.6555,0.6558,0.6561,0.6563,0.6566,0.6568,0.6571,0.6572,0.6574,0.6576,0.6576,0.6578,0.6579,0.6581,0.6581,0.6584,0.6584,0.6585,0.6585,0.6584,0.6584,0.6585,0.6584,0.6584,0.6584,0.6584,0.6584,0,0.6557,0.6559,0.6563,0.6567,0.6567,0.657,0.6572,0.6574,0.6575,0.6578,0.6579,0.6581,0.6583,0.6584,0.6587,0.6587,0.659,0.659,0.659,0.659,0.6592,0.6592,0.6599,0.66,0.6594,0.6594,0.6594,0,0.6559,0.6562,0.6566,0.6567,0.6569,0.6572,0.6574,0.6575,0.6577,0.658,0.6582,0.6584,0.6587,0.6591,0.6592,0.6594,0.6594,0.6596,0.6594,0.6594,0.6594,0.6594,0.6594,0.6596,0.6596,0.6596,0.6596,0,0.6563,0.6564,0.6567,0.657,0.6573,0.6575,0.6578,0.6579,0.6581,0.6583,0.6586,0.6588,0.6591,0.6594,0.6597,0.6597,0.6597,0.6597,0.6598,0.6597,0.6597,0.6597,0.6591,0.6597,0.6597,0.6597,0.6597,0.6597,0.6565,0.6567,0.657,0.6574,0.6576,0.6579,0.6581,0.6583,0.6585,0.6589,0.6589,0.6593,0.6595,0.6599,0.66,0.6602,0.6601,0.6602,0.6602,0.6603,0.6603,0.6597,0.6603,0.6603,0.6603,0.6603,0.6603,0,0.6568,0.657,0.6573,0.6578,0.658,0.6581,0.6584,0.6586,0.6589,0.6591,0.6594,0.6598,0.66,0.6602,0.6605,0.6607,0.6607,0.6607,0.6607,0.6607,0.6603,0.6602,0.6607,0.6607,0.6607,0.6607,0.6607,0.6607,0.657,0.6574,0.6576,0.6581,0.6583,0.6587,0.6589,0.6591,0.6593,0.6597,0.66,0.6602,0.6604,0.6607,0.661,0.661,0.6611,0.6612,0.6612,0.6608,0.6608,0.6607,0.6606,0.6612,0.6612,0.6616,0.6616,0.6616]},{"header":{"parameterUnit":"m.s-1","parameterCategory":1,"la1":30.2991,"la2":30.254,"lo1":-89.0895,"lo2":-89.0444,"dy":0.0017,"dx":0.0017,"nx":28,"ny":28,"refTime":"2024-03-28T21:00:00:Z","depth":0,"parameterNumber":3,"parameterNumberName":"V-component_of_WINDS"},"data":[0,0,0,0,0,0,0,0,0,0,0,0,0,0,0,0,0,0,0,0,0,0,0,0,0,0,0,0,0,0,0,0,0,0,0,0,0,0,0,0,0,0,0,0,0,0,0,0,0,0,0,0,0,0,0,0,0,0,-2.8263,-2.8264,0,-2.8339,-2.834,-2.8341,-2.832,-2.8318,-2.8317,-2.8315,-2.839,-2.8394,-2.8397,0,0,0,0,0,0,0,0,0,0,0,0,0,-2.8099,-2.8102,-2.8263,-2.8264,-2.8265,-2.8339,-2.834,-2.8341,-2.832,-2.8318,-2.8316,-2.8315,-2.8389,-2.8393,-2.8397,0,0,0,0,0,0,0,0,0,0,0,0,0,-2.8172,-2.8103,-2.8263,-2.8264,-2.8265,-2.8339,-2.834,-2.8342,-2.8321,-2.8318,-2.8316,-2.8314,-2.8388,-2.8393,-2.8398,-2.8475,0,0,-2.8413,-2.8416,0,0,0,0,0,0,0,0,-2.8168,-2.8178,-2.8263,-2.8264,-2.8265,-2.8318,-2.831,-2.8386,-2.8321,-2.8299,-2.8315,-2.8313,-2.8368,-2.8374,-2.8394,-2.8479,-2.8482,-2.8414,-2.8417,-2.8419,-2.8421,0,0,0,0,0,0,0,-2.8163,-2.8174,-2.8293,-2.8264,-2.8265,-2.826,-2.8268,-2.8324,-2.8345,-2.8301,-2.83,-2.8309,-2.8368,-2.8389,-2.8395,-2.8483,-2.8414,-2.8418,-2.8421,-2.8423,-2.8637,-2.864,0,0,0,0,0,0,-2.8157,-2.817,-2.8291,-2.8296,-2.821,-2.8264,-2.8273,-2.8303,-2.8345,-2.8349,-2.8311,-2.8308,-2.8381,-2.8389,-2.8398,-2.8492,-2.8419,-2.8424,-2.8427,-2.8635,-2.8638,-2.8641,0,0,0,0,0,0,-2.8154,-2.8168,-2.8288,-2.8233,-2.8248,-2.827,-2.8303,-2.8306,-2.8327,-2.8352,-2.8356,-2.8328,-2.838,-2.8391,-2.8457,-2.8494,-2.8426,-2.8431,-2.8632,-2.8636,-2.8639,-2.8681,0,0,0,0,0,0,-2.8149,-2.8167,-2.8197,-2.8234,-2.8251,-2.8346,-2.8306,-2.8309,-2.8336,-2.8332,-2.837,-2.8373,-2.8379,-2.8449,-2.8462,-2.85,-2.8435,-2.8628,-2.8634,-2.8638,-2.8677,-2.8686,-2.8694,0,0,0,0,0,-2.8143,-2.8205,-2.8198,-2.8213,-2.8289,-2.8348,-2.8358,-2.8364,-2.8339,-2.8369,-2.8386,-2.8372,-2.8488,-2.8456,-2.847,-2.8511,-2.8626,-2.8632,-2.8638,-2.8673,-2.8684,-2.8694,0,0,0,0,0,0,-2.817,-2.8209,-2.8203,-2.8278,-2.8311,-2.8345,-2.8383,-2.8375,-2.8414,-2.8409,-2.8414,-2.8422,-2.849,-2.8507,-2.8471,-2.8589,-2.8554,-2.8563,-2.8575,-2.8586,-2.8595,-2.8589,-2.8439,0,0,0,0,0,-2.8185,-2.8231,-2.8263,-2.8326,-2.8343,-2.836,-2.8386,-2.8388,-2.8421,-2.8434,-2.8456,-2.8487,-2.8531,-2.856,-2.8601,-2.8679,-2.8687,-2.8714,-2.8723,-2.873,-2.8737,-2.8781,-2.8793,-2.866,-2.866,-2.866,0,0,-2.8216,-2.8243,-2.8272,-2.8332,-2.8357,-2.8405,-2.8372,-2.8422,-2.8457,-2.8441,-2.8506,-2.8523,-2.8559,-2.8632,-2.8665,-2.8648,-2.8776,-2.8737,-2.8743,-2.8747,-2.8788,-2.8801,-2.8812,-2.8664,-2.8663,-2.8663,0,0,-2.8297,-2.8322,-2.8378,-2.8404,-2.8443,-2.8455,-2.8469,-2.8505,-2.8516,-2.8581,-2.857,-2.8612,-2.8687,-2.8713,-2.8736,-2.8829,-2.8818,-2.8842,-2.8888,-2.8931,-2.8941,-2.895,-2.8984,-2.8996,-2.885,-2.885,-2.885,0,-2.833,-2.8401,-2.8408,-2.846,-2.8487,-2.8477,-2.8534,-2.8559,-2.8609,-2.8628,-2.8608,-2.8704,-2.8727,-2.8806,-2.8829,-2.8848,-2.8864,-2.8838,-2.8939,-2.8949,-2.8957,-2.8989,-2.9002,-2.8853,-2.8853,-2.8852,-2.8852,0,-2.844,-2.849,-2.8531,-2.8581,-2.8613,-2.8668,-2.8682,-2.8713,-2.8713,-2.8726,-2.8793,-2.8821,-2.8869,-2.8888,-2.8887,-2.8967,-2.8956,-2.8938,-2.8903,-2.8973,-2.9003,-2.9015,-2.8857,-2.8856,-2.8855,-2.8854,0,0,-2.8539,-2.8594,-2.8608,-2.8632,-2.8675,-2.8713,-2.8767,-2.8815,-2.8843,-2.8878,-2.8923,-2.8988,-2.8973,-2.8999,-2.9001,-2.9038,-2.9111,-2.9016,-2.9017,-2.9033,-2.9202,-2.9215,-2.9229,-2.9105,-2.9107,-2.9109,-2.9199,0,-2.8623,-2.872,-2.8728,-2.8815,-2.8861,-2.8853,-2.89,-2.8931,-2.8946,-2.8987,-2.9003,-2.9049,-2.9024,-2.9041,-2.9077,-2.9095,-2.9145,-2.9088,-2.9147,-2.9149,-2.9138,-2.9245,-2.9259,-2.9343,-2.9211,-2.9213,-2.9215,0,-2.8734,-2.8775,-2.8866,-2.8905,-2.8924,-2.8967,-2.9012,-2.9052,-2.9088,-2.9096,-2.9126,-2.9124,-2.918,-2.9143,-2.922,-2.9181,-2.9206,-2.9218,-2.9222,-2.9227,-2.9186,-2.9253,-2.937,-2.9382,-2.9233,-2.9232,-2.923,0,-2.8797,-2.8874,-2.894,-2.896,-2.9006,-2.9036,-2.9057,-2.909,-2.9119,-2.9159,-2.9177,-2.9222,-2.9247,-2.9282,-2.9292,-2.9264,-2.9369,-2.9333,-2.9377,-2.9377,-2.9399,-2.9397,-2.9521,-2.9415,-2.9415,-2.9415,-2.9414,0,-2.889,-2.8947,-2.8969,-2.9009,-2.9072,-2.9081,-2.9144,-2.9162,-2.9193,-2.9236,-2.9231,-2.9272,-2.9283,-2.9325,-2.9334,-2.9397,-2.9407,-2.9415,-2.9417,-2.9416,-2.9415,-2.9432,-2.9426,-2.9418,-2.9417,-2.9416,-2.9416,0,-2.8971,-2.8988,-2.9059,-2.9097,-2.9108,-2.9153,-2.9186,-2.9225,-2.9239,-2.9294,-2.9308,-2.933,-2.9381,-2.9395,-2.9454,-2.946,-2.9534,-2.953,-2.9522,-2.9522,-2.9566,-2.9561,-2.9704,-2.9723,-2.9605,-2.9606,-2.9607,0,-2.9029,-2.9073,-2.9117,-2.9146,-2.9168,-2.9216,-2.9246,-2.9257,-2.9288,-2.9333,-2.9366,-2.9416,-2.9457,-2.9537,-2.9559,-2.9605,-2.9602,-2.9649,-2.9608,-2.9607,-2.9603,-2.96,-2.9605,-2.9656,-2.9657,-2.9658,-2.9659,0,-2.9131,-2.9138,-2.9182,-2.9229,-2.9266,-2.9303,-2.9339,-2.9364,-2.938,-2.9415,-2.9467,-2.9499,-2.9561,-2.9611,-2.9658,-2.9678,-2.9672,-2.9672,-2.9685,-2.9684,-2.9678,-2.9682,-2.9543,-2.9668,-2.9667,-2.9667,-2.9666,-2.9666,-2.9202,-2.9241,-2.9279,-2.9328,-2.9357,-2.9391,-2.943,-2.9451,-2.9495,-2.9547,-2.9551,-2.9607,-2.9643,-2.9706,-2.9729,-2.9773,-2.9759,-2.9777,-2.9782,-2.9786,-2.979,-2.9671,-2.9782,-2.9781,-2.9781,-2.9781,-2.9781,0,-2.9304,-2.9328,-2.9374,-2.9426,-2.9465,-2.9457,-2.9497,-2.953,-2.958,-2.9615,-2.9656,-2.9716,-2.9765,-2.9791,-2.9839,-2.987,-2.9868,-2.9882,-2.988,-2.9885,-2.98,-2.9784,-2.9883,-2.9883,-2.9883,-2.9883,-2.9883,-2.9883,-2.9361,-2.9427,-2.9439,-2.9519,-2.9543,-2.9599,-2.9623,-2.9655,-2.9683,-2.9751,-2.9792,-2.9809,-2.9841,-2.9892,-2.9936,-2.9943,-2.9961,-2.9977,-2.9981,-2.9901,-2.9891,-2.9881,-2.9866,-2.998,-2.9981,-3.0063,-3.0063,-3.0064]}]]